CW8428 Weather Reports


time (UTC)temp
C
wind
direction
speed
KPH
gust
KPH
rain 1hr
cm
rain 24hr
cm
rain mn
cm
humidity
%
barometer
mb
20260502130617 0 266 1.6 3.2 0.00 0.00 0.00 78 1023.1
20260502123620 0 266 0.0 4.8 0.00 0.00 0.00 80 1023.0
20260502122630 0 266 1.6 4.8 0.00 0.00 0.00 78 1022.9
20260502121641 0 266 1.6 3.2 0.00 0.00 0.00 79 1022.8
20260502120630 0 266 0.0 4.8 0.00 0.00 0.00 79 1022.8
20260502115616 0 265 1.6 6.4 0.00 0.00 0.00 78 1022.8
20260502114624 0 265 1.6 4.8 0.00 0.00 0.00 78 1022.7
20260502113631 0 265 0.0 0.0 0.00 0.00 0.00 78 1022.6
20260502112620 0 265 3.2 4.8 0.00 0.00 0.00 78 1022.6
20260502111615 1 265 0.0 6.4 0.00 0.00 0.00 77 1022.6
20260502110624 1 265 1.6 6.4 0.00 0.00 0.00 77 1022.6
20260502105646 1 261 0.0 1.6 0.00 0.00 0.00 78 1022.5
20260502104650 1 261 0.0 1.6 0.00 0.00 0.00 78 1022.5
20260502103637 1 261 1.6 3.2 0.00 0.00 0.00 79 1022.6
20260502102630 1 261 0.0 4.8 0.00 0.00 0.00 79 1022.5
20260502100632 1 261 3.2 4.8 0.00 0.00 0.00 78 1022.3
20260502090625 2 255 1.6 3.2 0.00 0.00 0.00 73 1021.8
20260502070628 5 119 3.2 9.7 0.00 0.00 0.00 59 1021.8
20260502065629 6 123 4.8 9.7 0.00 0.00 0.00 58 1021.9
20260502064617 6 42 1.6 3.2 0.00 0.00 0.00 58 1021.7
20260502063627 6 40 0.0 1.6 0.00 0.00 0.00 56 1021.6
20260502062621 6 40 3.2 8.0 0.00 0.00 0.00 57 1021.6
20260502061631 6 113 4.8 11.3 0.00 0.00 0.00 57 1021.5
20260502060630 6 150 3.2 4.8 0.00 0.00 0.00 57 1021.3
20260502055628 7 120 4.8 6.4 0.00 0.00 0.00 55 1021.2
20260502054617 7 119 3.2 6.4 0.00 0.00 0.00 55 1021.2
20260502053628 7 121 4.8 11.3 0.00 0.00 0.00 54 1021.1
20260502052615 7 123 6.4 12.9 0.00 0.00 0.00 53 1021.1
20260502051624 8 112 3.2 6.4 0.00 0.00 0.00 53 1021.0
20260502050633 8 111 3.2 9.7 0.00 0.00 0.00 52 1020.9
20260502045637 8 116 1.6 6.4 0.00 0.00 0.00 53 1020.9
20260502044623 8 117 4.8 9.7 0.00 0.00 0.00 53 1020.9
20260502043650 8 130 4.8 8.0 0.00 0.00 0.00 52 1020.8
20260502042619 9 129 4.8 11.3 0.00 0.00 0.00 50 1020.6
20260502041631 10 104 6.4 11.3 0.00 0.00 0.00 50 1020.6
20260502040619 10 126 4.8 6.4 0.00 0.00 0.00 49 1020.5
20260502035637 11 120 3.2 9.7 0.00 0.00 0.00 47 1020.3
20260502034624 11 134 3.2 9.7 0.00 0.00 0.00 44 1020.1
20260502033617 11 315 0.0 6.4 0.00 0.00 0.00 43 1019.9
20260502032627 12 117 3.2 4.8 0.00 0.00 0.00 44 1019.6
20260502031618 12 117 3.2 4.8 0.00 0.00 0.00 42 1019.5
20260502030631 12 110 4.8 6.4 0.00 0.00 0.00 42 1019.2
20260502025615 12 142 4.8 11.3 0.00 0.00 0.00 42 1019.1
20260502024624 13 190 4.8 8.0 0.00 0.00 0.00 39 1018.8
20260502023615 13 252 1.6 4.8 0.00 0.00 0.00 40 1018.7
20260502022625 13 252 1.6 4.8 0.00 0.00 0.00 41 1018.5
20260502021620 12 254 3.2 6.4 0.00 0.00 0.00 43 1018.5
20260502020629 14 268 3.2 6.4 0.00 0.00 0.00 43 1018.3
20260502015629 15 269 3.2 9.7 0.00 0.00 0.00 36 1018.3
20260502014618 16 280 4.8 6.4 0.00 0.00 0.00 37 1018.2
20260502013629 16 281 6.4 11.3 0.00 0.00 0.00 37 1018.2
20260502012617 17 263 6.4 9.7 0.00 0.00 0.00 36 1018.1
20260502011646 17 283 9.7 14.5 0.00 0.00 0.00 30 1018.0
20260502010632 17 271 6.4 12.9 0.00 0.00 0.00 31 1018.0
20260502005638 17 268 9.7 17.7 0.00 0.00 0.00 31 1018.0
20260502004627 17 273 11.3 17.7 0.00 0.00 0.00 28 1017.9
20260502003616 18 259 9.7 16.1 0.00 0.00 0.00 27 1018.0
20260502002626 18 263 6.4 20.9 0.00 0.00 0.00 28 1018.0
20260502001620 18 289 14.5 22.5 0.00 0.00 0.00 28 1018.0
20260502000631 18 280 9.7 22.5 0.00 0.00 0.00 25 1018.0
20260501235631 18 273 17.7 20.9 0.00 0.00 0.00 24 1018.0
20260501234619 18 281 11.3 19.3 0.00 0.00 0.00 25 1018.0
20260501233630 18 18 9.7 17.7 0.00 0.00 0.00 21 1018.0
20260501232619 18 270 8.0 17.7 0.00 0.00 0.00 21 1017.9
20260501231649 18 306 9.7 17.7 0.00 0.00 0.00 19 1017.9
20260501230635 18 250 1.6 12.9 0.00 0.00 0.00 20 1017.9
20260501225613 18 267 6.4 16.1 0.00 0.00 0.00 20 1018.0
20260501224624 18 296 8.0 12.9 0.00 0.00 0.00 18 1018.1
20260501223652 18 175 4.8 17.7 0.00 0.00 0.00 18 1018.2
20260501222620 18 221 3.2 12.9 0.00 0.00 0.00 16 1018.3
20260501221628 18 242 3.2 11.3 0.00 0.00 0.00 20 1018.4
20260501220623 18 215 6.4 20.9 0.00 0.00 0.00 20 1018.6
20260501215643 18 226 9.7 14.5 0.00 0.00 0.00 19 1018.7
20260501214613 18 269 6.4 19.3 0.00 0.00 0.00 20 1018.7
20260501213621 17 263 6.4 19.3 0.00 0.00 0.00 21 1018.9
20260501212632 17 254 11.3 17.7 0.00 0.00 0.00 22 1018.9
20260501211621 17 250 9.7 14.5 0.00 0.00 0.00 21 1019.1
20260501210649 17 257 11.3 16.1 0.00 0.00 0.00 22 1019.1
20260501205630 17 217 6.4 17.7 0.00 0.00 0.00 22 1019.2
20260501204623 17 281 14.5 17.7 0.00 0.00 0.00 24 1019.2
20260501203651 17 231 8.0 12.9 0.00 0.00 0.00 21 1019.4
20260501202617 17 270 9.7 19.3 0.00 0.00 0.00 23 1019.4
20260501201646 17 232 9.7 14.5 0.00 0.00 0.00 22 1019.4
20260501200632 16 273 4.8 16.1 0.00 0.00 0.00 22 1019.5
20260501195615 16 150 8.0 16.1 0.00 0.00 0.00 20 1019.5
20260501194624 16 236 6.4 11.3 0.00 0.00 0.00 23 1019.6
20260501193632 16 201 6.4 14.5 0.00 0.00 0.00 20 1019.7
20260501192622 16 130 6.4 16.1 0.00 0.00 0.00 20 1019.9
20260501191614 16 49 4.8 17.7 0.00 0.00 0.00 22 1020.0
20260501190621 16 94 9.7 17.7 0.00 0.00 0.00 22 1020.0
20260501185621 16 360 8.0 24.1 0.00 0.00 0.00 21 1020.2
20260501184630 15 123 11.3 19.3 0.00 0.00 0.00 23 1020.3
20260501183623 15 128 8.0 16.1 0.00 0.00 0.00 23 1020.5
20260501182632 15 289 6.4 16.1 0.00 0.00 0.00 22 1020.5
20260501181623 15 88 9.7 19.3 0.00 0.00 0.00 25 1020.6
20260501180619 15 81 12.9 16.1 0.00 0.00 0.00 26 1020.7
20260501175619 14 5 3.2 20.9 0.00 0.00 0.00 27 1020.9
20260501174631 13 237 4.8 16.1 0.00 0.00 0.00 32 1020.9
20260501173619 13 275 3.2 11.3 0.00 0.00 0.00 34 1021.1
20260501172628 13 211 6.4 14.5 0.00 0.00 0.00 34 1021.1
20260501171619 13 287 4.8 12.9 0.00 0.00 0.00 37 1021.3
20260501170628 12 259 6.4 11.3 0.00 0.00 0.00 40 1021.3
20260501165647 12 219 6.4 14.5 0.00 0.00 0.00 37 1021.4
20260501164635 11 244 0.0 8.0 0.00 0.00 0.00 44 1021.6
20260501163622 10 272 1.6 9.7 0.00 0.00 0.00 45 1021.7
20260501162612 10 229 4.8 6.4 0.00 0.00 0.00 46 1021.7
20260501161641 10 322 4.8 6.4 0.00 0.00 0.00 44 1021.8
20260501160629 10 245 1.6 11.3 0.00 0.00 0.00 45 1021.9
20260501155630 10 107 1.6 3.2 0.00 0.00 0.00 45 1021.9
20260501154622 9 107 3.2 4.8 0.00 0.00 0.00 47 1022.0
20260501153650 8 150 1.6 8.0 0.00 0.00 0.00 50 1022.0
20260501152617 8 173 1.6 4.8 0.00 0.00 0.00 50 1022.1
20260501151625 8 110 3.2 6.4 0.00 0.00 0.00 50 1022.2
20260501150618 8 50 3.2 4.8 0.00 0.00 0.00 54 1022.1
20260501145618 7 51 1.6 4.8 0.00 0.00 0.00 59 1022.1
20260501144627 6 36 0.0 3.2 0.00 0.00 0.00 63 1022.2
20260501143617 5 35 1.6 4.8 0.00 0.00 0.00 67 1022.1
20260501142613 4 35 3.2 4.8 0.00 0.00 0.00 69 1022.2